• Em Portugal
  • Lista de países
  • Para 7 dias
  • Temperatura da água
  • Mapas de satélite
  • Mapa do tempo
  • Widgets de tempo
  • user-avatar
    Iniciar Sessão

    Previsão horária em Kiustendil

    Hoje, 26 Setembro, Quarta-feira

    Tempo Temperatura Precipitação Vento Pressão Humidade
    00:00 -4°C° 0 mm 2 m/s 631 mmHg 69%
    01:00 -5°C° 0 mm 3 m/s 631 mmHg 67%
    02:00 -4°C° 0 mm 2 m/s 631 mmHg 70%
    03:00 -5°C° 0 mm 2 m/s 631 mmHg 72%
    04:00 -5°C° 0 mm 2 m/s 631 mmHg 75%
    05:00 -4°C° 0 mm 2 m/s 631 mmHg 68%
    06:00 -3°C° 0 mm 2 m/s 632 mmHg 62%
    07:00 -1°C° 0 mm 3 m/s 633 mmHg 53%
    08:00 +1°C° 0 mm 3 m/s 633 mmHg 46%
    09:00 +3°C° 0 mm 4 m/s 634 mmHg 39%
    10:00 +5°C° 0 mm 4 m/s 634 mmHg 31%
    11:00 +6°C° 0 mm 5 m/s 634 mmHg 29%
    12:00 +6°C° 0 mm 5 m/s 634 mmHg 27%
    13:00 +7°C° 0 mm 5 m/s 634 mmHg 24%
    14:00 +7°C° 0 mm 5 m/s 634 mmHg 26%
    15:00 +6°C° 0 mm 5 m/s 634 mmHg 28%
    16:00 +5°C° 0 mm 6 m/s 633 mmHg 30%
    17:00 +2°C° 0 mm 5 m/s 633 mmHg 37%
    18:00 0°C° 0 mm 4 m/s 632 mmHg 44%
    19:00 -1°C° 0 mm 3 m/s 632 mmHg 51%
    20:00 -2°C° 0 mm 3 m/s 632 mmHg 55%
    21:00 -4°C° 0 mm 3 m/s 632 mmHg 59%
    22:00 -4°C° 0 mm 2 m/s 632 mmHg 63%
    23:00 -5°C° 0 mm 2 m/s 631 mmHg 64%

    Amanhã, 27 Setembro, Quinta-feira

    Tempo Temperatura Precipitação Vento Pressão Humidade
    00:00 -5°C° 0 mm 2 m/s 631 mmHg 65%
    01:00 -5°C° 0 mm 2 m/s 631 mmHg 66%
    02:00 -6°C° 0 mm 2 m/s 631 mmHg 66%
    03:00 -6°C° 0 mm 2 m/s 630 mmHg 67%
    04:00 -6°C° 0 mm 2 m/s 630 mmHg 67%
    05:00 -5°C° 0 mm 2 m/s 630 mmHg 61%
    06:00 -3°C° 0 mm 2 m/s 631 mmHg 54%
    07:00 -2°C° 0 mm 2 m/s 632 mmHg 48%
    08:00 +1°C° 0 mm 3 m/s 632 mmHg 40%
    09:00 +4°C° 0 mm 3 m/s 633 mmHg 32%
    10:00 +6°C° 0 mm 4 m/s 633 mmHg 24%
    11:00 +7°C° 0 mm 4 m/s 633 mmHg 21%
    12:00 +10°C° 0 mm 4 m/s 633 mmHg 19%
    13:00 +10°C° 0 mm 5 m/s 633 mmHg 16%
    14:00 +11°C° 0 mm 4 m/s 633 mmHg 17%
    15:00 +10°C° 0 mm 4 m/s 632 mmHg 18%
    16:00 +10°C° 0 mm 4 m/s 632 mmHg 19%
    17:00 +7°C° 0 mm 3 m/s 631 mmHg 25%
    18:00 +3°C° 0 mm 3 m/s 630 mmHg 31%
    19:00 +1°C° 0 mm 2 m/s 629 mmHg 37%
    20:00 -1°C° 0 mm 2 m/s 629 mmHg 39%
    21:00 -2°C° 0 mm 2 m/s 629 mmHg 40%
    22:00 -2°C° 0 mm 2 m/s 628 mmHg 42%
    23:00 -3°C° 0 mm 2 m/s 628 mmHg 42%

    Depois de amanhã, 28 Setembro, Sexta-feira

    Tempo Temperatura Precipitação Vento Pressão Humidade
    00:00 -3°C° 0 mm 2 m/s 628 mmHg 42%
    01:00 -3°C° 0 mm 2 m/s 627 mmHg 42%
    02:00 -3°C° 0 mm 2 m/s 627 mmHg 42%
    03:00 -2°C° 0 mm 1 m/s 627 mmHg 42%
    04:00 -2°C° 0 mm 1 m/s 626 mmHg 42%
    05:00 0°C° 0 mm 1 m/s 627 mmHg 38%
    06:00 +2°C° 0 mm 1 m/s 627 mmHg 34%
    07:00 +3°C° 0 mm 1 m/s 628 mmHg 31%
    08:00 +6°C° 0 mm 1 m/s 628 mmHg 26%
    09:00 +9°C° 0 mm 1 m/s 629 mmHg 22%
    10:00 +12°C° 0 mm 1 m/s 630 mmHg 18%
    11:00 +14°C° 0 mm 1 m/s 630 mmHg 17%
    12:00 +15°C° 0 mm 1 m/s 629 mmHg 17%
    13:00 +16°C° 0 mm 1 m/s 629 mmHg 16%
    14:00 +16°C° 0 mm 2 m/s 629 mmHg 18%
    15:00 +15°C° 0 mm 2 m/s 628 mmHg 19%
    16:00 +15°C° 0 mm 2 m/s 628 mmHg 20%
    17:00 +12°C° 0 mm 1 m/s 627 mmHg 25%
    18:00 +9°C° 0 mm 1 m/s 626 mmHg 29%
    19:00 +7°C° 0 mm 1 m/s 625 mmHg 34%
    20:00 +6°C° 0 mm 1 m/s 625 mmHg 34%
    21:00 +6°C° 0 mm 1 m/s 625 mmHg 35%
    22:00 +6°C° 0 mm 1 m/s 624 mmHg 36%
    23:00 +6°C° 0 mm 1 m/s 624 mmHg 37%

    29 Setembro, Sábado

    Tempo Temperatura Precipitação Vento Pressão Humidade
    00:00 +5°C° 0 mm 1 m/s 624 mmHg 38%
    01:00 +5°C° 0 mm 1 m/s 624 mmHg 38%
    02:00 +5°C° 0 mm 1 m/s 624 mmHg 39%
    03:00 +5°C° 0 mm 1 m/s 623 mmHg 40%
    04:00 +4°C° 0 mm 1 m/s 623 mmHg 41%
    05:00 +5°C° 0 mm 1 m/s 624 mmHg 40%
    06:00 +6°C° 0 mm 1 m/s 624 mmHg 39%
    07:00 +7°C° 0 mm 1 m/s 624 mmHg 37%
    08:00 +8°C° 0 mm 2 m/s 625 mmHg 35%
    09:00 +10°C° 0 mm 2 m/s 626 mmHg 32%
    10:00 +12°C° 0 mm 3 m/s 627 mmHg 29%
    11:00 +13°C° 0 mm 3 m/s 627 mmHg 28%
    12:00 +14°C° 0 mm 4 m/s 627 mmHg 26%
    13:00 +15°C° 0 mm 4 m/s 627 mmHg 24%
    14:00 +14°C° 0 mm 4 m/s 627 mmHg 25%
    15:00 +13°C° 0 mm 5 m/s 626 mmHg 25%
    16:00 +13°C° 0 mm 5 m/s 626 mmHg 26%
    17:00 +10°C° 0 mm 4 m/s 626 mmHg 34%
    18:00 +7°C° 0 mm 3 m/s 625 mmHg 41%
    19:00 +5°C° 0 mm 2 m/s 625 mmHg 49%
    20:00 +4°C° 0 mm 2 m/s 625 mmHg 53%
    21:00 +3°C° 0 mm 2 m/s 625 mmHg 57%
    22:00 +3°C° 0 mm 2 m/s 625 mmHg 61%
    23:00 +2°C° 0 mm 2 m/s 625 mmHg 66%

    30 Setembro, Domingo

    Tempo Temperatura Precipitação Vento Pressão Humidade
    00:00 +2°C° 0 mm 2 m/s 625 mmHg 70%
    01:00 +2°C° 0 mm 2 m/s 625 mmHg 75%
    02:00 +1°C° 0 mm 2 m/s 625 mmHg 78%
    03:00 +1°C° 0 mm 2 m/s 625 mmHg 81%
    04:00 -1°C° 0 mm 2 m/s 625 mmHg 84%
    05:00 +1°C° 0 mm 2 m/s 625 mmHg 80%
    06:00 +1°C° 0 mm 3 m/s 626 mmHg 75%
    07:00 +2°C° 0 mm 3 m/s 626 mmHg 71%
    08:00 +4°C° 0 mm 3 m/s 627 mmHg 63%
    09:00 +7°C° 0 mm 3 m/s 628 mmHg 56%
    10:00 +9°C° 0 mm 3 m/s 628 mmHg 48%
    11:00 +10°C° 0 mm 3 m/s 628 mmHg 47%
    12:00 +11°C° 0 mm 3 m/s 628 mmHg 45%
    13:00 +11°C° 0 mm 3 m/s 628 mmHg 44%
    14:00 +11°C° 0 mm 3 m/s 628 mmHg 45%
    15:00 +12°C° 0 mm 2 m/s 628 mmHg 46%
    16:00 +12°C° 0 mm 2 m/s 628 mmHg 47%
    17:00 +8°C° 0 mm 2 m/s 627 mmHg 56%
    18:00 +6°C° 0 mm 2 m/s 627 mmHg 64%
    19:00 +4°C° 0 mm 2 m/s 626 mmHg 73%
    20:00 +3°C° 0 mm 2 m/s 626 mmHg 76%
    21:00 +4°C° 0 mm 1 m/s 626 mmHg 80%
    22:00 +3°C° 0 mm 1 m/s 625 mmHg 83%
    23:00 +3°C° 0 mm 1 m/s 625 mmHg 84%

    1 Outubro, Segunda-feira

    Tempo Temperatura Precipitação Vento Pressão Humidade
    00:00 +3°C° 0 mm 1 m/s 625 mmHg 84%
    01:00 +2°C° 0 mm 1 m/s 624 mmHg 85%
    02:00 +2°C° 0 mm 1 m/s 624 mmHg 85%
    03:00 +2°C° 0 mm 1 m/s 624 mmHg 86%
    04:00 +2°C° 0 mm 1 m/s 624 mmHg 86%
    05:00 +3°C° 0 mm 1 m/s 624 mmHg 81%
    06:00 +4°C° 0 mm 1 m/s 624 mmHg 75%
    07:00 +6°C° 0 mm 1 m/s 625 mmHg 70%
    08:00 +8°C° 0 mm 1 m/s 625 mmHg 61%
    09:00 +10°C° 0 mm 1 m/s 626 mmHg 52%
    10:00 +13°C° 0 mm 1 m/s 627 mmHg 43%
    11:00 +14°C° 0 mm 1 m/s 626 mmHg 40%
    12:00 +14°C° 0 mm 2 m/s 626 mmHg 37%
    13:00 +15°C° 0 mm 2 m/s 626 mmHg 34%
    14:00 +15°C° 0 mm 2 m/s 626 mmHg 36%
    15:00 +14°C° 0 mm 2 m/s 625 mmHg 37%
    16:00 +14°C° 0 mm 2 m/s 625 mmHg 39%
    17:00 +12°C° 0.1 mm 2 m/s 624 mmHg 48%
    18:00 +8°C° 0.1 mm 2 m/s 624 mmHg 58%
    19:00 +7°C° 0.1 mm 1 m/s 623 mmHg 68%
    20:00 +6°C° 0 mm 1 m/s 623 mmHg 72%
    21:00 +6°C° 0 mm 1 m/s 623 mmHg 76%
    22:00 +5°C° 0 mm 1 m/s 622 mmHg 80%
    23:00 +5°C° 0 mm 1 m/s 622 mmHg 82%
    Mostrar mais